THOR ABLESTAR DEB, 125

Orbit data source: Space-Track

THOR ABLESTAR DEB, 125 is space debris in LEO originally from a launch on Thu, 29 Jun 1961 UTC launched from the Air Force Eastern Test Range (AFETR). Debris objects in space refer to the collection of defunct objects orbiting the Earth. Examples of debris include non-operational satellites, rocket bodies, and fragments generated from explosions, collisions, or faulty payload assembly.

Loading next visibility...
Identifier
125, 1961-015K
Orbit
LEO
Country
Flag of USUS
Related business
Manufacturer
Unknown
Mission
Spacecraft
Bus & Motor
Unknown
Mass
Unknown
Launch date (UTC)
1961-06-29 (65 years ago)
Launch vehicle
Unknown
Launch site
Air Force Eastern Test Range (AFETR)
Object type
Payload
Rocket body
Debris
Shape & HBR
Unknown shape, 0.1 m
Radar Cross Section
Medium (>0.1 m² and <1 m²)

Expand to show TLE details & history
Last TLE update: 20 hours ago

TLE from 20 hours ago
0 THOR ABLESTAR DEB
1 00125U 61015K   26250.98626699  .00000397  00000-0  27463-3 0  9995
2 00125  66.8739  81.9454 0072157 358.6208   1.4669 14.07755599328915
Epoch: 2026-09-07T23:40Z
TLE epoch observation values (Epoch: 2026-09-07T23:40:13.467Z)
Latitude
-0.00008°
Longitude
99.83009°
Altitude
816.893 km
Speed
7.472 km/s
True Right ascension
05h 27m 46s
True Declination
0° 00' 00"
Sunlit
Object was in daylight at epoch
Visualization orbit readout
Latitude
Unknown
Longitude
Unknown
Altitude
Unknown
Speed
Unknown
Apparent Right ascension
Unknown
Apparent Declination
Unknown
Sunlit
N/A
Visualization observer readout
Local Sidereal Time
11:46:26
Azimuth
Unknown
Elevation
Unknown
Doppler factor
Unknown
Orbital elements
Apogee altitude
917.701 km
Perigee altitude
813.167 km
Semi-major axis
7,243.571 km
Eccentricity
0.00722
Inclination
66.8739°
RAAN
81.9454°
Arg. of periapsis
358.6208°
True anomaly
1.48826°
Mean anomaly
1.4669°
Eccentric anomaly
1.47756°
Mean motion
3.52058 °/min
Orbital period
102.26 mins
BSTAR
0.00027463
Loading maneuver chart data...
Computing Atmospheric mass density...

Documentation

Showing up to 5 results
|